Regional Weather Roundup
Issued by NWS

Home | Current Version | Previous Version | Graphics & Text | Print | Product List | Glossary Off
Versions: 1 2 3 4 5 6 7 8 9 10 11 12 13 14 15 16 17 18 19 20 21 22 23 24 25 26 27 28 29 30 31 32 33 34 35 36 37 38 39 40 41 42 43 44 45 46 47 48 49 50

000
ASUS44 KFWD 260515
RWRTX
NORTH TEXAS HOURLY WEATHER ROUNDUP
NATIONAL WEATHER SERVICE FORT WORTH TX
1200 AM CDT THU MAY 26 2016

NOTE: "FAIR" INDICATES FEW OR NO CLOUDS BELOW 12,000 FEET WITH NO
SIGNIFICANT WEATHER AND/OR OBSTRUCTIONS TO VISIBILITY.

TXZ118-119-260600-
DALLAS/FORT WORTH METROPLEX

CITY           SKY/WX    TMP DP  RH WIND       PRES   REMARKS
DFW AIRPORT    CLOUDY    81  73  76 S17G25    29.93S
DALLAS LOVE    CLOUDY    82  73  74 S16G23    29.94S
FTW MEACHAM    CLOUDY    81  74  79 S15       29.93S
DAL-EXECUTIVE  PTCLDY    80  72  76 S9G20     29.95S
FTW-ALLIANCE   PTCLDY    79  74  84 S13G21    29.92F
FTW-NAS-JRB    CLOUDY    81  74  79 S13       29.94S
FTW-SPINKS     CLOUDY    79  73  83 S13       29.95F HAZE
ARLINGTON      CLOUDY    83  73  72 S14       29.94F
GRAND PRAIRIE  PTCLDY    81  72  74 S10G21    29.96S
ADDISON        CLOUDY    82  75  80 S12G21    29.96S
MESQUITE       CLOUDY    80  74  80 S13G18    29.96F
LANCASTER      CLOUDY    79  71  77 S12       29.96F
$$

TXZ091>094-102>105-117-120-121-131>134-260600-
NORTH CENTRAL TEXAS

CITY           SKY/WX    TMP DP  RH WIND       PRES   REMARKS
SHRMAN/DENISON CLEAR     75  69  82 S13       29.93F
GAINESVILLE    CLEAR     76  73  90 S10       29.94S FOG
BOWIE          PTCLDY    77  73  88 S15G24    29.92S
BRIDGEPORT     CLOUDY    78  76  92 S12G20    29.94S
DECATUR        CLEAR     78  75  90 S17       29.94S
DENTON         LGT RAIN  79  74  84 S16       29.93S
MCKINNEY       CLOUDY    79  74  84 S14       29.94F
GREENVILLE     CLOUDY    81  72  74 S14       29.97S
ROCKWALL       CLOUDY    80  74  82 S18G25    29.95S
TERRELL        CLOUDY    80  73  79 S13       29.96F
WAXAHACHIE     MOCLDY    78  73  86 S9G17     29.97F
CLEBURNE       CLOUDY    77  77 100 S10G16    29.97F
GRANBURY       CLOUDY    81  74  79 SE12      29.96S
$$

TXZ083>090-098>101-113>116-127>130-139>142-154-155-260600-
WESTERN NORTH TEXAS

CITY           SKY/WX    TMP DP  RH WIND       PRES   REMARKS
WICHITA FALLS  CLEAR     77  73  87 S16       29.87R
WF-KICKAPOO    CLEAR     80  73  79 S18G26    29.89S
VERNON         CLEAR     81  70  70 S12       29.86S
ABILENE        PTCLDY    76  73  91 S15       29.95R FOG
ABILENE-DYESS  MOCLDY    76  68  76 SE16      29.92S
BRECKENRIDGE   CLEAR     80  73  78 S16G22    29.92F
GRAHAM         CLEAR     77  75  92 SE7       29.90F
MINERAL WELLS  CLOUDY    79  75  87 S10       29.93S
STEPHENVILLE   CLOUDY    77  73  88 S8        30.00S
COMANCHE       CLOUDY    76  76 100 SE6       29.97F FOG
BROWNWOOD      CLOUDY    77  75  94 SE10      29.95F FOG
COLEMAN        CLOUDY    77  73  86 S8        29.96F
$$

TXZ143>147-156>162-174-175-260600-
CENTRAL TEXAS

CITY           SKY/WX    TMP DP  RH WIND       PRES   REMARKS
WACO           CLOUDY    79  72  79 S15       29.96F
WACO-MCGREGOR  CLOUDY    78  74  87 S15G21    29.97F
HILLSBORO      CLOUDY    77  72  84 SE10      29.96F
CORSICANA      CLOUDY    80  72  76 S12       29.99S
MEXIA          CLOUDY    78  73  84 S13G22    29.98F
HEARNE         MOCLDY    77  74  90 SE7       30.00F
CAMERON        PTCLDY    78  73  86 S9        29.98F
TEMPLE         CLOUDY    78  74  87 SE15      29.98
KILLEEN        CLOUDY    76  74  93 SE13      29.95F
KILLEEN-SKYLRK PTCLDY    78  74  87 SE13      29.97F
FORT HOOD      CLOUDY    76  75  96 S10       29.95F FOG
GATESVILLE     MOCLDY    79  73  83 SE8       29.98F
HAMILTON       CLOUDY    77  77 100 S12       29.99S
LAMPASAS       MOCLDY    78  76  92 SE8       29.96F
$$

TXZ095>097-106>112-122>126-135>138-148>153-164>167-260600-
EAST TEXAS

CITY           SKY/WX    TMP DP  RH WIND       PRES   REMARKS
PARIS          PTCLDY    81  68  65 S10G17    29.97S
SULPHUR SPRNGS CLOUDY    81  74  81 S12       30.00R
MOUNT PLEASANT CLOUDY    80  71  75 S13       30.00S
GILMER         CLOUDY    79  73  81 S10G16    30.00S
MINEOLA        CLOUDY    81  75  83 S8        30.00R
TYLER          PTCLDY    79  72  79 S12       30.00S
LONGVIEW       PTCLDY    78  74  87 S10       30.01S
MARSHALL       CLOUDY    77  71  83 S12       30.05R
ATHENS         CLOUDY    77  77 100 S9        29.98F
PALESTINE      CLOUDY    79  75  88 SE9       30.02R
JACKSONVILLE   CLOUDY    77  73  88 S13       30.05S
HENDERSON      CLOUDY    77  73  85 S10       30.04S
CENTER         FAIR      78  76  94 SE5       30.05S
NACOGDOCHES    CLOUDY    75  72  88 SE5       30.05R
LUFKIN         CLOUDY    77  72  84 SE6       30.04R
$$

SUPPLEMENTAL OBSERVATIONS (CENTRAL)

CITY           SKY/WX    TMP DP  RH WIND       PRES   REMARKS
LAKE TEXOMA      N/A     79  73  83 SE8         N/A
CADDO GRASSLND   N/A     81  73  78 S9          N/A
PAT MAYSE LAKE   N/A     79  75  89 SE12        N/A
GREENVILLE       N/A     81  72  74 S10         N/A
LAKE LIMESTONE   N/A     79  73  83 S10         N/A
MCGREGOR         N/A     79  73  83 S14         N/A
TEMPLE           N/A     77  73  88 SE10        N/A
$$

SUPPLEMENTAL OBSERVATIONS (WEST)

CITY           SKY/WX    TMP DP  RH WIND       PRES   REMARKS
MILLERS CREEK    N/A     79  73  83 S14         N/A
POSSUM KINGDOM   N/A     79  73  83 SE8         N/A
LBJ GRASSLAND    N/A     79  75  89 S14         N/A
GRANBURY         N/A     81  73  78 S13G22      N/A
COMANCHE         N/A     75  70  83 SE9         N/A
IVIE RESERVOIR   N/A     79  73  83 SE7         N/A
COLORADO BEND    N/A     77  72  83 SW10G18     N/A
$$

SUPPLEMENTAL OBSERVATIONS (EAST)

CITY           SKY/WX    TMP DP  RH WIND       PRES   REMARKS
CLARKSVILLE      N/A     81  75  83 S12         N/A
LINDEN           N/A     81  73  78 S3G14       N/A
CADDO LAKE       N/A     79  72  78 S3          N/A
S SABINE NF      N/A     75  72  88 SE1         N/A
$$

SUPPLEMENTAL OBSERVATIONS ARE A COLLECTION OF AUTOMATED INSTRUMENTS
THAT ARE MAINTAINED BY A VARIETY OF FEDERAL AND STATE AGENCIES.
CERTAIN ELEMENTS...SUCH AS HUMIDITY VALUES AND SUSTAINED WIND
SPEEDS...MAY BE APPROXIMATED.




USA.gov is the U.S. government's official web portal to all federal, state and local government web resources and services.